This demonstration page uses our WeatherBlox Daily Observations layout. Learn more.

Left ArrowRight Arrow

Hourly Observations for May 11, 2019

Temp ( °F °C ) Dew Point ( °F °C ) Humidity (%) Winds ( mph kmh ) Pressure ( in mb ) Visibility ( mi km ) Precip ( " mm )
12:52 am 00:52 Clear 51 10.6 43 6.1 74 74 E 7 11 30.03 1017 10 16 0.00 0.00
1:52 am 01:52 Cloudy 52 11.1 43 6.1 72 72 ENE 8 13 30.00 1016 10 16 0.00 0.00
2:52 am 02:52 Cloudy 52 11.1 42 5.6 69 69 E 5 7 30.00 1016 10 16 0.00 0.00
3:37 am 03:37 Cloudy with Light Rain 51 10.6 45 7.2 80 80 E 6 9 30.01 1016 10 16 0.01 0.25
3:52 am 03:52 Cloudy with Light Rain 50 10 45 7.2 83 83 E 8 13 29.99 1016 10 16 0.01 0.25
4:16 am 04:16 Cloudy with Heavy Rain 49 9.4 46 7.8 90 90 Calm 30.03 1017 3 4 0.05 1.27
4:30 am 04:30 Cloudy with Heavy Rain 49 9.4 47 8.3 93 93 NE 3 6 30.04 1017 3 5 0.14 3.56
4:52 am 04:52 Cloudy with Rain 49 9.4 47 8.3 93 93 NNE 6 9 30.03 1017 4 6 0.25 6.35
5:03 am 05:03 Cloudy with Rain 49 9.4 46 7.8 90 90 ENE 9 15 30.03 1017 4 6 0.04 1.02
5:07 am 05:07 Cloudy with Rain 49 9.4 46 7.8 90 90 E 9 15 30.02 1017 5 8 0.05 1.27
5:52 am 05:52 Cloudy with Rain 49 9.4 46 7.8 90 90 E 10 17 29.98 1015 5 8 0.14 3.56
6:52 am 06:52 Cloudy with Light Rain 49 9.4 46 7.8 90 90 E 6 9 29.97 1015 7 11 0.08 2.03
7:52 am 07:52 Cloudy with Light Rain 49 9.4 47 8.3 93 93 ENE 7 11 29.97 1015 4 6 0.05 1.27
8:02 am 08:02 Cloudy with Light Rain 49 9.4 47 8.3 93 93 ENE 6 9 29.99 1016 3 5 0.01 0.25
8:52 am 08:52 Cloudy with Light Rain 50 10 48 8.9 93 93 E 9 15 29.93 1014 6 10 0.04 1.02
9:10 am 09:10 Cloudy with Light Rain 51 10.6 48 8.9 89 89 E 8 13 29.97 1015 10 16 0.01 0.25
9:52 am 09:52 Cloudy 52 11.1 48 8.9 86 86 E 6 9 29.95 1014 10 16 0.01 0.25
10:52 am 10:52 Cloudy 53 11.7 49 9.4 86 86 NE 7 11 29.96 1014 10 16 0.00 0.00
11:13 am 11:13 Cloudy 53 11.7 48 8.9 83 83 NE 7 11 29.97 1015 10 16 0.00 0.00
11:52 am 11:52 Cloudy 54 12.2 48 8.9 80 80 NNE 6 9 29.95 1014 10 16 0.00 0.00
12:52 pm 12:52 Cloudy 56 13.3 48 8.9 75 75 ENE 6 9 29.93 1013 10 16 0.00 0.00
12:59 pm 12:59 Cloudy 56 13.3 48 8.9 75 75 ENE 5 7 29.93 1013 10 16 0.00 0.00
1:20 pm 13:20 Cloudy 55 12.8 48 8.9 77 77 E 5 7 29.92 1013 10 16 0.00 0.00
1:37 pm 13:37 Cloudy 56 13.3 48 8.9 75 75 NE 6 9 29.92 1013 10 16 0.00 0.00
1:52 pm 13:52 Cloudy 57 13.9 49 9.4 74 74 Calm 29.91 1013 10 16 0.00 0.00
2:52 pm 14:52 Cloudy 57 13.9 49 9.4 74 74 NE 5 7 29.88 1012 10 16 0.00 0.00
3:52 pm 15:52 Cloudy 58 14.4 49 9.4 72 72 N 8 13 29.85 1011 10 16 0.00 0.00
4:52 pm 16:52 Cloudy 59 15 51 10.6 75 75 N 7 11 29.85 1011 10 16 0.00 0.00
5:52 pm 17:52 Cloudy 58 14.4 49 9.4 72 72 N 8 13 29.85 1011 10 16 0.00 0.00
6:52 pm 18:52 Cloudy 56 13.3 48 8.9 75 75 NNE 10 17 29.84 1011 10 16 0.00 0.00
7:37 pm 19:37 Cloudy 55 12.8 49 9.4 80 80 NNE 10 17 29.84 1010 10 16 0.00 0.00
7:52 pm 19:52 Cloudy 54 12.2 48 8.9 80 80 NE 9 15 29.83 1010 10 16 0.00 0.00
8:28 pm 20:28 Cloudy 54 12.2 48 8.9 80 80 NNE 9 15 29.85 1011 10 16 0.00 0.00
8:52 pm 20:52 Cloudy 54 12.2 48 8.9 80 80 NNE 9 15 29.86 1011 10 16 0.00 0.00
8:54 pm 20:54 Cloudy 54 12.2 48 8.9 80 80 NE 9 15 29.87 1012 10 16 0.00 0.00
9:52 pm 21:52 Cloudy 52 11.1 48 8.9 86 86 NNE 9 15 29.88 1012 10 16 0.00 0.00
10:52 pm 22:52 Cloudy 52 11.1 48 8.9 86 86 NE 8 13 29.88 1012 10 16 0.00 0.03
11:03 pm 23:03 Cloudy with Light Rain 52 11.1 48 8.9 86 86 ENE 6 9 29.89 1012 10 16 0.00 0.03
11:22 pm 23:22 Cloudy with Light Rain 52 11.1 49 9.4 89 89 NE 6 9 29.89 1012 10 16 0.00 0.03
11:43 pm 23:43 Cloudy 52 11.1 49 9.4 89 89 ENE 6 9 29.89 1012 10 16 0.00 0.03
11:52 pm 23:52 Cloudy with Light Rain 51 10.6 48 8.9 89 89 NE 6 9 29.88 1012 10 16 0.00 0.03

Powered by AerisWeather